Torna al catalogo

METEOSAT 2 AKM

MAGE 1

AttivoGEO
NORAD 20837·ROCKET BODY·🇪🇺 EU

Lanciato Jun 19, 1981 da Guiana Space Centre

Loading…

TLE

AggiornatoSource: Space-Track

Epoca: Sep 14, 2026, 22:15 UTC

1 20837U 81057F   26257.92754743 -.00000250  00000-0  00000-0 0  9992
2 20837   7.3774 297.7613 0074345 213.7829 156.0564  0.99367842120299

Traccia METEOSAT 2 AKM in tempo reale con AllMySat

Download on the App Store